Location: Unspecified
(37.6100°N, 2.7800°W)
Time: 22:22:59
(UTC+00:00)

Tiangong 2 - Visible Passes

Search period start: 24 June 2018 00:00
Search period end: 04 July 2018 00:00
Orbit: 385 x 396 km, 42.8° (Epoch: 24 June)

Date Brightness Start Highest point End Pass type
(mag) Time Alt. Az. Time Alt. Az. Time Alt. Az.
25 Jun 2.3 04:14:51 10° SW 04:17:46 33° SSE 04:20:42 10° E visible
26 Jun 3.0 03:19:34 17° SSE 03:20:23 19° SE 03:22:43 10° E visible
27 Jun 1.2 03:56:55 15° SW 03:59:28 67° SSE 04:02:40 10° ENE visible
28 Jun 1.9 03:01:53 36° SSE 03:02:01 37° SSE 03:05:00 10° E visible
29 Jun 4.0 02:06:49 12° E 02:06:49 12° E 02:07:07 10° E visible
29 Jun 1.3 03:39:09 19° WSW 03:41:17 68° NNW 03:44:29 10° ENE visible
30 Jun 1.2 02:44:04 66° ESE 02:44:04 66° ESE 02:46:57 10° ENE visible
30 Jun 2.5 04:17:50 10° WNW 04:20:49 34° N 04:23:48 10° ENE visible
01 Jul 4.0 01:48:57 13° E 01:48:57 13° E 01:49:20 10° ENE visible
01 Jul 2.1 03:21:17 20° W 03:23:11 43° NNW 03:26:17 10° ENE visible
02 Jul 2.0 02:26:10 50° NNE 02:26:10 50° NNE 02:28:46 10° ENE visible
02 Jul 2.8 03:59:55 10° WNW 04:02:49 30° N 04:05:43 10° ENE visible
03 Jul 4.3 01:31:04 11° ENE 01:31:04 11° ENE 01:31:15 10° ENE visible
03 Jul 2.6 03:03:24 19° WNW 03:05:09 33° N 03:08:07 10° ENE visible
